Location: Étang Rond
(42.7927°N, 1.0661°E)
Time: 01:47:51
(UTC+00:00)

NOSS 0 Rocket - Pass Details

Date: 08 November 2025
Orbit: 934 x 953 km, 70.0° (Epoch: 07 December)

Event Time Altitude Azimuth Distance (km) Brightness Sun altitude
Rises 04:33:15 0° 196° (SSW) 3,575 6.8 -23.3°
Reaches altitude 10° 04:35:46 10° 194° (SSW) 2,634 6.1 -22.8°
Maximum altitude 04:41:50 69° 112° (ESE) 996 4.2 -21.7°
Drops below altitude 10° 04:47:56 10° 30° (NNE) 2,655 6.6 -20.6°
Sets 04:50:28 0° 29° (NNE) 3,605 7.3 -20.1°
